Home   Weather   Harare   Past weeks

Flag for Zimbabwe Past Weather in Harare, Zimbabwe — Yesterday and Last 2 Weeks

Now
59 °F

Clear.


Feels Like: 58 °F
Forecast: 48 / 70 °F
Wind: 7 mph from Southeast

Location: Harare Kutsaga Airport

Current Time: Apr 28, 2017 at 8:16:16 pm

Latest Report: Apr 28, 2017 at 7:00 pm


Visibility: 10 mi

Pressure: 30.36 "Hg (25.44 "Hg at 1490m altitude)

Humidity: 68%

Dew Point: 48 °F

Location of HarareLocation

Past Weather in Harare — Graph

°F

Harare Temperature Yesterday

Maximum temperature yesterday: 68 °F (at 12:00 pm)
Minimum temperature yesterday: 57 °F (at 12:00 am)
Average temperature yesterday: 61 °F

High & Low Weather Summary for the Past Weeks

 TemperatureHumidityPressure
High81 °F (Apr 14, 1:00 pm)100% (Apr 14, 12:00 am)30.42 "Hg (Apr 14, 12:00 am)
Low50 °F (Apr 26, 5:00 am)41% (Apr 22, 12:00 pm)30.15 "Hg (Apr 14, 4:00 pm)
Average64 °F82%30.26 "Hg
* Reported Apr 13 7:00 pm — Apr 28 7:00 pm, Harare, Weather by CustomWeather, © 2017

Note: Actual official high and low records may vary slightly from our data, if they occured in-between our weather recording intervals... More about our weather records

Advertising

Harare Weather History for the Previous 24 Hours

Scroll right to see more
 ConditionsComfort  
Time TempWeatherWind HumidityBarometerVisibility
7:00 pm
Fri, Apr 28
59 °FClear.7 mph68%30.36 "Hg10 mi
6:00 pm63 °FClear.6 mph59%30.33 "Hg10 mi
5:00 pm68 °FPassing clouds.7 mph49%30.33 "HgN/A
4:00 pm70 °FScattered clouds.8 mph46%30.30 "HgN/A
3:00 pm70 °FScattered clouds.8 mph46%30.30 "HgN/A
2:00 pm73 °FScattered clouds.7 mph44%30.33 "HgN/A
1:00 pm70 °FPassing clouds.8 mph50%30.36 "HgN/A
12:00 pm70 °FPassing clouds.8 mph50%30.36 "HgN/A
11:00 am68 °FPassing clouds.8 mph56%30.39 "HgN/A
10:00 am64 °FScattered clouds.7 mph68%30.42 "HgN/A
9:00 am61 °FScattered clouds.8 mph72%30.42 "HgN/A
8:00 am59 °FScattered clouds.8 mph88%30.39 "HgN/A
7:00 am55 °FScattered clouds.1 mph100%30.36 "HgN/A
6:00 am54 °FPassing clouds.No wind100%30.33 "HgN/A
5:00 am54 °FPassing clouds.2 mph100%30.33 "HgN/A
4:00 am55 °FPassing clouds.No wind100%30.33 "HgN/A
2:00 am57 °FClear.3 mph100%30.33 "Hg10 mi
12:00 am59 °FClear.2 mph100%30.36 "Hg10 mi
11:00 pm
Thu, Apr 27
59 °FClear.6 mph100%30.36 "Hg10 mi
10:00 pm61 °FClear.3 mph100%30.36 "Hg10 mi
9:00 pm61 °FPassing clouds.5 mph83%30.36 "HgN/A
8:00 pm61 °FClear.2 mph88%30.33 "Hg10 mi
Weather by CustomWeather, © 2017

See weather overviewHow to use our weather pages